Regional Weather Roundup
Issued by NWS Portland, ME

Current Version | Previous Version | Text Only | Print | Product List | Glossary Off
Versions: 1 2 3 4 5 6 7 8 9 10 11 12 13 14 15 16 17 18 19 20 21 22 23 24 25 26 27 28 29 30 31 32 33 34 35 36 37 38 39 40 41 42 43 44 45 46 47 48 49 50
000 ASUS41 KGYX 110810 RWRGYX WEATHER ROUNDUP FOR MAINE AND NEW HAMPSHIRE NATIONAL WEATHER SERVICE GRAY ME 300 AM EST MON DEC 11 2017 MEZ002-005-006-010-012-015-018-020-021-024-026-027-029-110900- MAINE CITY SKY/WX TMP DP RH WIND PRES REMARKS PORTLAND CLOUDY 31 23 72 SW12G18 29.89F SANFORD CLOUDY 27 22 81 NE5 29.89F BAR HARBOR CLOUDY 24 23 96 SW3 29.90S WISCASSET CLOUDY 24 23 96 CALM 29.90F ROCKLAND CLOUDY 31 25 78 W7 29.89F FRYEBURG CLOUDY 30 23 75 VRB5 29.86F LEWISTONAUBURN CLOUDY 28 22 78 S9 29.87F AUGUSTA CLOUDY 26 19 74 S3 29.87S WATERVILLE CLOUDY 20 18 92 S3 29.81F BANGOR CLOUDY 21 19 92 S5 29.87S GREENVILLE N/A 18 13 80 SE6 29.74S MILLINOCKET CLOUDY 18 14 84 CALM 29.85R HOULTON CLOUDY 12 9 87 S3 29.81F PRESQUE ISLE CLOUDY 11 8 88 CALM 29.82S FRENCHVILLE LGT SNOW 7 4 87 N8 29.78R FOG CARIBOU LGT SNOW 15 11 83 S3 29.79F FOG $$ NHZ002-005-008-009-011-012-014-110900- NEW HAMPSHIRE CITY SKY/WX TMP DP RH WIND PRES REMARKS PORTSMOUTH CLOUDY 29 22 72 SW8 29.89F ROCHESTER CLOUDY 28 24 85 CALM 29.88F NASHUA CLOUDY 30 23 75 W3 29.91F MANCHESTER CLOUDY 30 22 72 SE3 29.89F CONCORD CLOUDY 31 22 69 SW5 29.89F LACONIA CLOUDY 30 23 75 SW9 29.87S PLYMOUTH CLOUDY 27 23 84 CALM 29.86S BERLIN PTCLDY 16 14 92 VRB3 29.79S WHITEFIELD CLOUDY 23 19 85 CALM 29.80S JAFFREY CLOUDY 28 22 78 CALM 29.87F KEENE CLOUDY 26 22 84 CALM 29.89F LEBANON CLOUDY 31 22 69 S9 29.85S MT WASHINGTON SNOW 5 5 100 W39G48 N/A VSB 0 WCI -22 $$ VTZ005-007-008-110900- VERMONT CITY SKY/WX TMP DP RH WIND PRES REMARKS ST JOHNSBURY N/A 25 22 88 MISG 29.80F MONTPELIER CLOUDY 28 20 71 VRB6 29.83S BURLINGTON CLOUDY 31 22 69 S8 29.83S $$ MAZ007-012-024-CTZ003-RIZ002-NYZ038-NYZ072-110900- SOUTHERN NEW ENGLAND AND NY CITY SKY/WX TMP DP RH WIND PRES REMARKS BOSTON CLOUDY 33 24 69 SW10 29.93F WORCESTER CLOUDY 28 18 66 W10 29.88F WCI 19 NANTUCKET CLOUDY 40 28 62 W9 29.96F PROVIDENCE CLOUDY 34 23 64 W9 29.95F HARTFORD CLOUDY 32 22 66 SW13 29.94F ALBANY CLOUDY 31 21 66 S3 29.91S NEW YORK CITY CLOUDY 37 21 52 SW10 29.98F $$ ANZ081-ANZ082-ANZ150-NHZ014-MEZ023>029-110900- COASTAL MARINE OBSERVATIONS STATION/POSITION TIME TEMP WIND PRES WAVE AIR SEA DIR/SP/G HT/PER (UTC) (F) (DEG/KT/KT) (MB) (FT/S) MOUNT DESERT ROC 0800 39 240/ 25/ 28 1012.1F MATINICUS ROCK 0700 39 250/ 27/ 30 1011.8R ISLE OF SHOALS 0700 35 240/ 17/ 20 1012.9S JEFFREYS LEDGE 0736 48 N/A 5/12 GEORGES BANK BUO 0650 46 51 1015.4 10/11 $$ .............KEY.............. WCI - WIND CHILL TC - TEMPERATURE IN CELSIUS VSB - VISIBILITY IN MILES HX - HEAT INDEX FAIR- INDICATES FEW OR NO CLOUDS BELOW 12,000 FT, WITH NO SIGNIFICANT WEATHER AND/OR OBSTRUCTIONS TO VISIBILITY.

USA.gov is the U.S. government's official web portal to all federal, state and local government web resources and services.